Regional Weather Roundup
Issued by NWS

Home | Current Version | Previous Version | Text Only | Print | Product List | Glossary On
Versions: 1 2 3 4 5 6 7 8 9 10 11 12 13 14 15 16 17 18 19 20 21 22 23 24 25 26 27 28 29 30 31 32 33 34 35 36 37 38 39 40 41 42 43 44 45 46 47 48 49 50
000
ASUS43 KLSX 031007
RWRMO

WEATHER SUMMARY FOR MISSOURI
NATIONAL WEATHER SERVICE SPRINGFIELD MO
500 AM CDT TUE AUG 03 2021

NOTE: "FAIR" INDICATES FEW OR NO CLOUDS BELOW 12,000 FEET WITH NO
       SIGNIFICANT WEATHER AND/OR OBSTRUCTIONS TO VISIBILITY.
       CURRENT SKY AND/OR WEATHER CONDITIONS ARE NOT AVAILABLE FOR
       CHILLICOTHE AND FARMINGTON.

MOZ001>031-035>038-043-044-053-054-031100-
...NORTHERN AND WESTERN MISSOURI...

CITY           SKY/WX    TMP DP  RH WIND       PRES   REMARKS
KANSAS CTY INT CLEAR     63  57  81 NE6       30.12F
KANSAS C DTWN  CLEAR     63  57  81 CALM      30.11S
LEE`S SUMMIT   CLEAR     62  59  90 CALM      30.12F
ST JOSEPH      CLEAR     54  53  97 NW3       30.13S
CHILLICOTHE      N/A     59  58  96 CALM      30.14S
KIRKSVILLE     CLEAR     57  56  96 CALM      30.14S

$$
MOZ066>068-077>081-088>096-101>105-031100-
...SOUTHWEST MISSOURI...

CITY           SKY/WX    TMP DP  RH WIND       PRES   REMARKS
SPRINGFIELD    CLEAR     62  60  93 SE3       30.08F
JOPLIN         CLEAR     62  60  93 NE3       30.08S FOG
BRANSON        CLOUDY    64  64 100 CALM      30.10R

$$
MOZ032>034-039>042-045>050-055>058-069>072-031100-
...CENTRAL MISSOURI...

CITY           SKY/WX    TMP DP  RH WIND       PRES   REMARKS
COLUMBIA       CLEAR     65  61  87 NE5       30.11S
JEFFERSON CITY CLOUDY    69  60  73 CALM      30.10S
ROLLA          PTCLDY    62  59  90 CALM      30.11S
SEDALIA        CLEAR     63  61  93 NE5       30.11S
WHITEMAN AFB   PTCLDY    61  61 100 N3        30.07S
WARRENSBURG    CLEAR     59  59 100 NW3       30.11S FOG
OSAGE BEACH    CLEAR     61  60  97 CALM      30.10F

$$
MOZ051-052-059>065-031100-
...EAST CENTRAL MISSOURI...

CITY           SKY/WX    TMP DP  RH WIND       PRES   REMARKS
ST LOUIS INTL  PTCLDY    67  61  81 CALM      30.10S
SPIRIT OF STL  PTCLDY    64  61  90 CALM      30.09S
ST CHARLES     CLEAR     65  58  78 CALM      30.09S

$$
MOZ072>076-082>087-097>100-106>115-031100-
...SOUTH CENTRAL AND SOUTHEAST MISSOURI...

CITY           SKY/WX    TMP DP  RH WIND       PRES   REMARKS
CAPE GIRARDEAU CLEAR     60  59  96 W5        30.06R FOG
FARMINGTON     PTCLDY    60  60 100 CALM      30.11R
POPLAR BLUFF   PTCLDY    63  61  93 NW5       30.06R
WEST PLAINS    PTCLDY    64  61  90 CALM      30.11R

$$



USA.gov is the U.S. government's official web portal to all federal, state and local government web resources and services.